This demonstration page uses our WeatherBlox Daily Observations layout. Learn more.

Left ArrowRight Arrow

36.17497, -115.13722

Hourly Observations for January 9, 2022

Temp ( °F °C ) Dew Point ( °F °C ) Humidity (%) Winds ( mph kmh ) Pressure ( in mb ) Visibility ( mi km ) Precip ( " mm )
12:53 am 00:53 Clear 51 10.6 19 -7.2 28 28 NNW 8 13 30.31 1027 10 16 0.00 0.00
1:53 am 01:53 Clear 51 10.6 20 -6.7 29 29 NNW 13 20 30.34 1027 10 16 0.00 0.00
2:53 am 02:53 Clear 50 10 21 -6.1 32 32 NNW 10 17 30.35 1028 10 16 0.00 0.00
3:53 am 03:53 Clear 48 8.9 22 -5.6 36 36 N 7 11 30.36 1028 10 16 0.00 0.00
4:53 am 04:53 Clear 46 7.8 22 -5.6 38 38 NNW 8 13 30.38 1029 10 16 0.00 0.00
5:53 am 05:53 Clear 47 8.3 22 -5.6 37 37 NNW 8 13 30.42 1030 10 16 0.00 0.00
6:53 am 06:53 Sunny 48 8.9 22 -5.6 36 36 NW 12 19 30.45 1031 10 16 0.00 0.00
7:53 am 07:53 Sunny 48 8.9 23 -5 37 37 NNW 13 20 30.47 1032 10 16 0.00 0.00
8:53 am 08:53 Sunny 51 10.6 22 -5.6 32 32 NNW 16 26 30.49 1033 10 16 0.00 0.00
9:53 am 09:53 Sunny 54 12.2 22 -5.6 29 29 N 12 19 30.52 1034 10 16 0.00 0.00
10:53 am 10:53 Sunny 57 13.9 22 -5.6 26 26 NNE 3 6 30.52 1033 10 16 0.00 0.00
11:53 am 11:53 Sunny 59 15 21 -6.1 23 23 N 3 6 30.48 1032 10 16 0.00 0.00
12:53 pm 12:53 Sunny 59 15 19 -7.2 21 21 Calm 30.47 1032 10 16 0.00 0.00
1:53 pm 13:53 Sunny 62 16.7 19 -7.2 19 19 ESE 12 19 30.45 1031 10 16 0.00 0.00
2:53 pm 14:53 Sunny 62 16.7 18 -7.8 18 18 ENE 13 20 30.46 1031 10 16 0.00 0.00
3:53 pm 15:53 Sunny 62 16.7 18 -7.8 18 18 ENE 13 20 30.47 1032 10 16 0.00 0.00
4:53 pm 16:53 Clear 58 14.4 18 -7.8 21 21 ENE 9 15 30.49 1033 10 16 0.00 0.00
5:53 pm 17:53 Clear 56 13.3 18 -7.8 22 22 ENE 6 9 30.51 1033 10 16 0.00 0.00
6:53 pm 18:53 Clear 54 12.2 20 -6.7 26 26 NW 5 7 30.52 1034 10 16 0.00 0.00
7:53 pm 19:53 Clear 49 9.4 21 -6.1 33 33 W 6 9 30.53 1034 10 16 0.00 0.00
8:53 pm 20:53 Clear 47 8.3 21 -6.1 36 36 VRB 3 6 30.55 1035 10 16 0.00 0.00
9:53 pm 21:53 Clear 45 7.2 21 -6.1 39 39 NW 6 9 30.55 1035 10 16 0.00 0.00
10:53 pm 22:53 Clear 43 6.1 21 -6.1 42 42 NW 6 9 30.55 1035 10 16 0.00 0.00
11:53 pm 23:53 Clear 44 6.7 20 -6.7 38 38 W 7 11 30.54 1034 10 16 0.00 0.00

Powered by AerisWeather